Tracking 30703 objects as of 13-Jun-2025
HD Live streaming from Space Station
objects crossing your sky now

STARLINK-1091

Track STARLINK-1091 now!
10-day predictions
STARLINK-1091 is classified as:


NORAD ID: 44940
Int'l Code: 2020-001AC
Perigee: 416.3 km
Apogee: 420.3 km
Inclination: 53.0 °
Period: 92.8 minutes
Semi major axis: 6789 km
RCS: Unknown
Launch date: January 7, 2020
Source: United States (US)
Launch site: AIR FORCE EASTERN TEST RANGE (AFETR)
Your satellite tracking list
Your tracking list is empty




NASA's NSSDC Master Catalog

Two Line Element Set (TLE):
1 44940U 20001AC  25164.25002315  .00077512  00000-0  12656-2 0  9994
2 44940  53.0489  89.7439 0002985 146.3426  96.7001 15.51906875299596
Source of the keplerian elements: AFSPC